sat.trackr.live / text

‹ back to catalog

STARLINK-34258

NORAD 64211 · 2025-117J

PAYLOAD ACTIVE UNKNOWN

§ Identity

Operator
Country
US
Launch date
2025-05-31
Launch site
AFWTR
Launch vehicle
Mass (kg)
RCS (m²)

Purposes: comms

External: N2YO · Heavens-Above · Gunter

§ Orbital elements

Epoch: 2026-05-25T03:01:05.137824Z

Period
94.11 min
Inclination
53.1598°
Eccentricity
0.0001305
Mean motion
15.30201880 rev/d
Perigee alt
474.3 km
Apogee alt
476.1 km
Semi-major
6,853.3 km
B*
7.3844e-4
RAAN
44.1927°
Arg perigee
87.5884°
Mean anomaly
272.5266°
Rev number
5,623

§ Raw data

STARLINK-342581 64211U 25117J   26145.12575391  .00021576  00000+0  73844-3 0  99902 64211  53.1598  44.1927 0001305  87.5884 272.5266 15.30201880 56237

JSON: /api/v1/satellites/64211 · /tle

For live sub-satellite position, see the globe view (requires WebGL).

§ Visibility from observer

Set your observer location to see the next 7 days of passes ≥ 10°. The values pass through the URL so the page stays shareable.

No JS? Fill the form by hand. The geolocation button needs JavaScript.